{"data":{"norad_id":53423,"epoch":"2026-05-25T02:50:39.293376Z","epoch_age_seconds":64948,"freshness":"FRESH","line1":"1 53423U 22097AM  26145.11851034  .00005987  00000+0  39429-3 0  9996","line2":"2 53423  53.2150 131.0270 0001425  84.4310 275.6844 15.08808257210161","mean_motion":15.08808257,"eccentricity":0.0001425,"inclination_deg":53.215,"raan_deg":131.027,"arg_perigee_deg":84.431,"mean_anomaly_deg":275.6844,"bstar":0.00039429,"rev_number":21016,"period_min":95.439562536805,"perigee_km":538.85460453535,"apogee_km":540.826228099,"semimajor_km":6917.9774163172,"source":"CELESTRAK","updated_at":"2026-05-25T13:38:17.404078Z"}}